Total_Precipitation_Accumulation
0.06 0.12 0.14 0.15 0.17 0.20 0.26 0.33 0.43 0.49 0.48 0.57 0.67 0.89 1.01 1.23 1.40 1.61 1.75 1.82 1.79 1.86 2.06 2.38 2.85 3.55 4.02 4.17 4.27 4.48 4.54 4.64 4.67 4.69 4.69 4.85 5.02 5.07 5.09 5.24 5.29 5.15 5.06 5.24
0.11 0.12 0.10 0.12 0.16 0.19 0.27 0.33 0.43 0.51 0.45 0.53 0.73 0.94 1.11 1.27 1.42 1.52 1.62 1.67 1.63 1.66 1.93 2.37 2.85 3.33 3.61 3.99 4.19 4.44 4.50 4.67 4.95 5.37 5.88 6.15 6.29 6.17 6.02 5.95 5.89 5.73 5.62 5.76
0.13 0.10 0.07 0.09 0.15 0.20 0.28 0.31 0.42 0.53 0.57 0.60 0.84 1.29 1.35 1.41 1.63 1.76 1.74 1.80 1.86 1.73 1.92 2.28 2.51 2.92 3.23 3.62 3.96 4.22 4.57 4.97 5.48 6.18 7.01 7.37 7.18 6.75 6.53 6.24 6.16 5.88 5.67 5.69
0.09 0.07 0.08 0.09 0.11 0.17 0.25 0.21 0.30 0.40 0.58 0.72 0.73 1.38 1.69 1.80 1.97 2.12 1.90 1.83 1.88 1.90 1.94 2.11 2.36 2.68 2.90 3.25 3.71 4.19 4.75 5.33 6.02 6.68 7.17 7.41 7.33 7.08 6.79 6.31 5.89 5.49 5.17 5.02
0.11 0.10 0.14 0.17 0.12 0.15 0.17 0.17 0.23 0.31 0.45 0.67 0.64 1.04 1.73 1.99 2.11 2.19 2.01 1.95 1.91 1.89 1.82 1.94 2.12 2.36 2.70 3.15 3.63 4.15 4.67 5.38 5.92 6.48 6.91 7.20 7.19 7.11 6.74 6.00 5.35 4.93 4.55 4.29
0.10 0.10 0.15 0.14 0.11 0.14 0.16 0.21 0.29 0.37 0.49 0.80 0.66 0.96 1.80 2.23 2.29 2.16 2.08 2.08 1.91 1.82 1.89 1.97 2.00 2.15 2.67 3.13 3.66 4.04 4.40 5.13 5.81 6.31 6.68 6.97 6.97 6.81 6.20 5.46 4.87 4.47 4.15 3.88
0.23 0.19 0.16 0.13 0.15 0.17 0.22 0.41 0.77 0.93 1.00 0.89 0.63 1.02 1.84 2.00 2.01 1.99 1.83 1.76 1.80 1.79 1.79 1.82 2.03 2.23 2.85 3.32 3.57 3.82 4.13 4.59 5.08 5.52 5.82 6.01 6.07 5.85 5.40 4.96 4.51 4.14 3.88 3.59
0.38 0.32 0.19 0.14 0.14 0.18 0.25 0.40 0.85 1.13 1.17 1.04 0.99 1.69 2.26 1.95 1.86 1.89 1.84 1.66 1.66 1.77 1.73 1.72 1.96 2.26 2.48 2.77 3.08 3.41 3.67 4.01 4.29 4.47 4.71 4.68 4.66 4.62 4.39 4.04 3.65 3.37 3.07 2.85
0.43 0.36 0.19 0.14 0.11 0.15 0.25 0.33 0.40 0.64 0.73 1.05 1.46 1.96 2.39 2.24 2.13 1.89 1.79 1.73 1.72 1.68 1.65 1.77 1.97 2.12 2.22 2.41 2.68 2.89 3.06 3.35 3.53 3.53 3.55 3.49 3.38 3.39 3.37 3.25 2.95 2.64 2.40 2.22
0.36 0.38 0.26 0.18 0.15 0.17 0.22 0.30 0.44 0.78 1.08 1.37 1.65 2.38 2.92 2.90 2.60 2.28 1.96 1.76 1.60 1.63 1.70 1.80 1.91 2.12 2.21 2.22 2.43 2.59 2.61 2.71 2.85 2.94 2.82 2.62 2.68 2.75 2.73 2.69 2.44 2.22 2.03 1.86
0.39 0.50 0.37 0.25 0.26 0.27 0.29 0.36 0.50 0.75 0.90 1.45 2.01 2.77 2.72 2.81 2.63 2.48 2.34 1.93 1.74 1.79 1.85 1.91 1.90 2.01 2.06 2.06 2.13 2.27 2.32 2.36 2.39 2.46 2.45 2.34 2.26 2.19 2.20 2.25 2.16 2.00 1.87 1.74
0.39 0.48 0.53 0.36 0.31 0.28 0.32 0.37 0.53 0.92 1.05 1.21 1.79 2.73 2.29 2.65 2.77 2.60 2.39 2.05 1.94 2.02 2.02 2.05 2.03 1.97 2.00 2.13 2.27 2.19 2.19 2.20 2.22 2.18 2.21 2.26 2.07 1.97 1.93 1.91 1.86 1.74 1.70 1.65
0.37 0.55 0.82 0.86 0.75 0.49 0.43 0.39 0.46 0.62 0.95 1.22 1.72 2.63 2.37 2.51 2.74 2.54 2.31 2.16 2.19 2.19 2.18 2.29 2.18 1.98 1.92 1.98 2.05 1.94 1.87 1.88 1.76 1.73 1.85 1.95 1.79 1.66 1.67 1.64 1.60 1.61 1.54 1.51
0.31 0.60 1.08 1.53 1.28 0.76 0.57 0.44 0.44 0.61 1.02 1.20 1.47 2.01 2.16 2.28 2.36 2.37 2.27 2.24 2.21 2.18 2.15 2.27 2.27 2.07 1.98 1.86 1.82 1.73 1.65 1.62 1.61 1.58 1.57 1.60 1.59 1.54 1.53 1.50 1.48 1.45 1.40 1.34
0.34 0.61 0.72 0.69 0.54 0.54 0.56 0.51 0.51 0.62 0.76 1.14 1.41 1.71 1.96 2.23 2.40 2.46 2.33 2.21 2.15 2.14 2.18 2.31 2.22 2.06 2.02 1.97 1.90 1.68 1.57 1.53 1.53 1.57 1.55 1.50 1.48 1.43 1.45 1.45 1.41 1.34 1.33 1.24
0.39 0.54 0.62 0.66 0.55 0.56 0.64 0.62 0.63 0.71 0.83 1.06 1.37 1.82 2.09 2.40 2.49 2.40 2.25 2.18 2.24 2.24 2.19 2.16 2.08 2.05 2.02 1.99 1.92 1.69 1.50 1.43 1.50 1.59 1.58 1.51 1.47 1.41 1.41 1.45 1.44 1.42 1.43 1.41
0.48 0.65 0.93 0.94 0.70 0.83 1.22 1.04 0.98 1.04 1.05 1.27 1.58 1.84 2.00 2.30 2.41 2.39 2.27 2.29 2.40 2.35 2.41 2.32 2.23 2.25 2.25 2.11 1.93 1.81 1.60 1.48 1.48 1.52 1.51 1.56 1.51 1.41 1.35 1.34 1.46 1.48 1.52 1.47
0.55 0.80 1.12 1.14 1.28 1.86 1.68 1.07 1.07 1.19 1.17 1.21 1.32 1.45 1.66 1.92 2.03 2.07 2.15 2.28 2.39 2.37 2.35 2.30 2.26 2.30 2.29 2.14 2.03 1.92 1.69 1.54 1.48 1.44 1.37 1.42 1.42 1.41 1.37 1.39 1.46 1.50 1.56 1.56
0.47 0.85 1.33 1.51 1.77 1.96 1.72 1.23 1.13 1.45 1.73 1.33 1.30 1.36 1.46 1.47 1.76 2.10 2.05 2.01 2.12 2.19 2.20 2.23 2.23 2.26 2.24 2.15 2.04 1.91 1.73 1.57 1.45 1.37 1.30 1.24 1.21 1.23 1.28 1.31 1.41 1.55 1.59 1.54
0.51 0.83 1.41 1.69 2.14 2.39 1.93 1.07 0.91 1.46 2.36 1.60 1.47 1.47 1.57 1.71 2.15 2.17 1.81 1.73 1.85 1.96 2.01 2.02 2.05 2.10 2.12 2.07 2.01 1.98 1.87 1.66 1.47 1.29 1.15 1.16 1.20 1.20 1.22 1.30 1.41 1.43 1.47 1.46
1.03 1.20 1.46 1.76 2.33 2.33 1.40 0.91 1.08 2.21 2.54 1.68 1.58 1.56 1.62 1.79 1.91 1.76 1.56 1.65 1.79 1.87 1.89 1.79 1.72 1.76 1.85 1.85 1.85 1.86 1.77 1.55 1.30 1.15 1.08 1.14 1.14 1.16 1.16 1.31 1.34 1.36 1.32 1.39
1.52 1.80 1.92 2.09 2.54 2.59 1.36 1.15 1.77 2.10 1.54 1.46 1.55 1.53 1.52 1.39 1.28 1.38 1.50 1.65 1.76 1.84 1.79 1.67 1.59 1.47 1.43 1.48 1.61 1.69 1.57 1.32 1.13 1.06 1.04 1.05 1.04 0.97 0.97 1.24 1.37 1.36 1.43 1.37
1.61 1.97 2.20 2.41 2.57 2.07 1.47 1.54 1.57 1.47 1.42 1.37 1.39 1.29 1.25 1.25 1.23 1.32 1.48 1.59 1.72 1.72 1.63 1.55 1.42 1.29 1.20 1.26 1.35 1.35 1.30 1.22 1.05 1.02 1.08 1.02 0.96 1.04 1.00 1.06 1.13 1.19 1.29 1.24
1.65 1.58 1.81 2.06 2.06 1.79 1.62 1.55 1.42 1.29 1.30 1.25 1.26 1.26 1.27 1.30 1.27 1.31 1.42 1.44 1.56 1.59 1.52 1.43 1.37 1.30 1.20 1.13 1.10 1.08 0.96 1.02 1.08 1.08 1.13 1.10 1.04 1.07 1.03 1.01 0.96 0.90 0.93 0.97
1.60 1.75 2.02 2.20 2.13 1.95 1.72 1.43 1.29 1.26 1.31 1.31 1.30 1.27 1.25 1.32 1.38 1.38 1.40 1.36 1.38 1.41 1.35 1.28 1.39 1.35 1.25 1.10 1.02 0.95 0.86 0.90 1.11 1.15 1.10 1.09 1.01 0.95 0.96 0.91 0.88 0.80 0.78 0.81
1.27 1.69 2.17 2.31 1.95 1.89 1.75 1.50 1.32 1.35 1.45 1.40 1.31 1.28 1.20 1.23 1.25 1.23 1.23 1.18 1.19 1.24 1.19 1.19 1.29 1.27 1.18 1.09 1.07 0.99 0.88 0.85 0.96 1.04 1.03 0.98 0.95 0.85 0.78 0.77 0.74 0.68 0.61 0.61